Regional Weather Roundup
Issued by NWS Jackson, KY

Home | Current Version | Previous Version | Graphics & Text | Print | Product List | Glossary On
Versions: 1 2 3 4 5 6 7 8 9 10 11 12 13 14 15 16 17 18 19 20 21 22 23 24 25 26 27 28 29 30 31 32 33 34 35 36 37 38 39 40 41 42 43 44 45 46 47 48 49 50
000
ASUS43 KJKL 160005
RWRJKL

EAST KENTUCKY HOURLY WEATHER ROUNDUP
NATIONAL WEATHER SERVICE JACKSON KY
800 PM EDT MON SEP 15 2014

NOTE: "FAIR" INDICATES FEW OR NO CLOUDS BELOW 12,000 FEET WITH
NO SIGNIFICANT WEATHER AND/OR OBSTRUCTIONS TO VISIBILITY.

* THESE REPORTS ARE NOT UNDER NWS QUALITY CONTROL AND MAY NOT
  REPORT WEATHER SUCH AS PRECIPITATION AND FOG.

KYZ079-080-083-085-087-088-110-112-115-119-120-160100
...EASTERN KENTUCKY...

CITY           SKY/WX    TMP DP  RH WIND       PRES   REMARKS
JACKSON        MOCLDY    67  59  75 CALM      30.14S
6HR MIN TEMP:  67; 6HR MAX TEMP:  75;

LONDON         CLOUDY    70  61  73 CALM      30.13F
6HR MIN TEMP:  70; 6HR MAX TEMP:  75;

MONTICELLO*    CLOUDY    67  62  84 CALM      30.13F
6HR MIN TEMP:  67; 6HR MAX TEMP:  75;

MIDDLESBORO*   CLOUDY    68  67  96 CALM      30.14S
6HR MIN TEMP:  68; 6HR MAX TEMP:  77;

HARLAN APT*    CLOUDY    64  64 100 MISG      30.15S
BLACK MTN*       N/A     57  54  88 CALM        N/A
PIKEVILLE APT* PTCLDY    66  57  72 W3        30.14R
BIG SANDY*     MOCLDY    67  61  80 CALM      30.12F
6HR MIN TEMP:  67; 6HR MAX TEMP:  73;

MOREHEAD APT*  CLOUDY    68  57  68 VRB6      30.06F
$$

KYZ035-036-041-042-044-050-067-078-099-160100
...CENTRAL KENTUCKY...

CITY           SKY/WX    TMP DP  RH WIND       PRES   REMARKS
MT STERLING*   CLOUDY    68  57  68 SW6       30.07F
FLEMING/MASON* CLOUDY    65  56  71 NW3       30.09R
DANVILLE*      CLOUDY    66  59  77 CALM      30.11F
RICHMOND*      CLOUDY    66  59  77 S3        30.10F
LEXINGTON      CLOUDY    70  53  54 S7        30.06F
6HR MIN TEMP:  69; 6HR MAX TEMP:  78;

FRANKFORT      CLOUDY    67  55  65 N6        30.08R
6HR MIN TEMP:  67; 6HR MAX TEMP:  75;

$$

KYZ091>093-OHZ055-061-077-WVZ005-015-034-035-042-160100
...SOUTHERN OHIO/WEST VIRGINIA...

CITY           SKY/WX    TMP DP  RH WIND       PRES   REMARKS
COVINGTON      RAIN      58  55  90 S9        30.08S FOG
COLUMBUS       CLOUDY    67  50  54 W7        30.05R
DAYTON         MOCLDY    60  56  86 W5        30.08F
WILMINGTON     CLOUDY    61  54  77 W9        30.08R
HUNTINGTON     CLOUDY    64  60  87 S3        30.09F
PINEVILLE*     MOCLDY    65  64  97 MISG      30.19F
BECKLEY        MOCLDY    63  56  78 W5        30.17S
BLUEFIELD      CLOUDY    67  61  81 NW3       30.19S
$$

VAZ002-007-008-TNZ017-027-036-066-071-160100
...SOUTHWEST VIRGINIA/EAST TENNESSEE...

CITY           SKY/WX    TMP DP  RH WIND       PRES   REMARKS
WISE*          CLOUDY    64  63  94 SW3       30.20S
JONESVILLE*    CLOUDY    68  68 100 CALM      30.16S
ABINGDON*      CLOUDY    69  65  89 CALM      30.17S
BRISTOL        LGT RAIN  70  63  78 CALM      30.14F
KNOXVILLE      CLOUDY    74  67  78 CALM      30.12S
OAK RIDGE      CLOUDY    71  68  90 CALM      30.14S
CROSSVILLE     CLOUDY    68  63  84 CALM      30.17R
NASHVILLE      CLOUDY    69  63  81 SE5       30.10F
$$

...KEY TO REMARKS...
VSB - VISIBILITY IN MILES
WCI - WIND CHILL INDEX
HX  - HEAT INDEX

$$



USA.gov is the U.S. government's official web portal to all federal, state and local government web resources and services.